Estación Meteorológica Peña el Pijo (Robertgarden) [ 07/23/19 00:06:22 CEST ]

Fecha Hora Presion(HPa) Temp (°C) Humedad % Rocio (°C) Viento ( m/s) Direccion Lluvia 1Hora(mm) Lluvia 24H(mm) LLuvia Total(mm)
2019-Jul-01 01:08:55 1013.100 - - - - NW     342.62
2019-Jul-01 02:09:02 1012.700 - - - - NW     342.62
2019-Jul-01 03:09:31 1012.400 - - - - NW     342.62
2019-Jul-01 04:09:14 1012.300 - - - - NW     342.62
2019-Jul-01 05:09:21 1012.000 - - - - NW     342.62
2019-Jul-01 06:09:31 1012.000 - - - - NW     342.62
2019-Jul-01 07:09:41 1011.900 - - - - NW     342.62
2019-Jul-01 08:08:54 1011.600 - - - - NW     342.62
2019-Jul-01 09:09:30 1011.400 - - - - NW     342.62
2019-Jul-01 10:09:14 1011.100 - - - - NW     342.62
2019-Jul-01 11:08:53 1010.700 - - - - NW     342.62
2019-Jul-01 12:08:59 1010.300 - - - - NW     342.62
2019-Jul-01 13:09:27 1010.000 - - - - NW     342.62
2019-Jul-01 14:09:35 1009.400 - - - - NW     342.62
2019-Jul-01 15:09:36 1008.700 - - - - NW     342.62
2019-Jul-01 16:09:20 1009.100 - - - - NW     342.62
2019-Jul-01 17:01:41 1010.700 24.3 49 12.9 1.1 SW     342.62
2019-Jul-01 18:09:21 1010.400 - - - - NNW     342.62
2019-Jul-01 19:09:33 1010.200 - - - - NNW     342.62
2019-Jul-01 20:09:00 1010.100 - - - - NNW     342.62
2019-Jul-01 21:09:15 1010.500 - - - - NNW     342.62
2019-Jul-01 22:08:50 1011.500 - - - - NNW     342.62
2019-Jul-01 23:09:14 1011.300 - - - - NNW     342.62

Temperatura Máxima:24°    Temperatura Mínima:
Presión Máxima:1013.100 Hpa    Presión Mínima:1008.700 Hpa


Volver